Theta_e
358 359 366 367 368 367 367 368 369 368 367 369 369 368 368 368 367 366 366 364 362 361 360 360 360 361 360 359 358 359 360 361 360 358 359 360 359 359 358 356 358 354 358
357 362 366 368 369 368 367 368 370 370 369 370 370 369 368 367 366 365 364 361 361 362 362 360 360 361 360 359 358 357 359 360 359 357 359 359 360 359 359 354 357 358 359
358 362 364 368 369 368 368 368 369 370 370 370 370 368 368 366 365 366 364 363 364 364 364 363 362 361 358 357 356 355 357 359 358 358 359 360 357 360 359 356 357 359 359
358 361 364 366 369 368 367 368 369 369 368 370 369 368 367 366 365 365 364 364 364 362 362 360 359 358 357 357 356 356 355 357 360 361 360 357 355 360 359 358 357 358 357
358 356 361 368 369 368 367 367 369 368 368 368 369 365 365 364 363 363 363 362 362 361 360 359 358 357 357 356 355 354 355 358 360 360 357 356 358 358 359 357 356 359 360
358 358 362 366 368 366 367 367 367 367 367 367 368 366 363 364 363 362 362 361 361 359 357 359 357 355 353 353 353 353 355 359 362 360 358 356 358 360 359 358 358 360 361
357 358 358 364 366 366 366 367 367 367 366 366 367 367 366 363 362 361 360 361 357 359 356 355 355 354 354 354 354 356 359 361 359 359 352 353 358 363 359 359 358 358 359
357 358 361 361 361 363 364 366 366 366 365 366 367 365 364 363 361 359 360 359 358 356 356 356 355 355 355 354 356 358 360 363 360 358 352 353 358 360 358 359 359 358 359
356 357 361 359 359 362 362 365 365 365 364 365 365 364 363 362 362 362 361 359 357 357 357 357 357 357 357 358 359 360 363 364 359 359 358 356 362 360 359 361 361 360 360
356 359 358 355 354 355 357 363 364 363 365 364 364 365 363 362 363 363 360 359 358 357 357 357 357 358 361 362 362 362 363 366 360 361 357 358 364 360 360 361 362 362 361
354 358 355 355 352 353 355 360 363 361 362 363 364 362 363 359 362 358 361 360 359 359 360 361 362 363 363 366 368 368 365 358 356 357 358 362 364 361 362 362 362 363 363
352 355 358 356 351 354 355 359 362 366 357 361 362 362 365 363 355 358 362 361 362 362 363 363 363 364 363 353 358 367 358 356 351 351 353 365 365 363 363 364 365 364 363
353 356 357 355 353 352 356 357 359 359 361 366 366 367 362 359 355 349 354 356 361 361 358 361 360 358 352 352 352 352 353 355 356 357 358 366 367 364 364 365 366 364 362
350 355 357 355 353 352 354 352 350 354 365 362 362 366 356 352 350 352 350 353 354 352 351 352 351 354 356 356 355 353 355 357 356 355 363 367 367 367 365 365 367 365 364
350 354 356 356 353 353 345 349 349 348 354 358 355 361 352 351 353 350 352 351 352 354 354 352 353 355 358 356 358 358 356 356 355 352 354 370 369 369 367 367 367 366 365
351 354 356 357 356 353 350 349 350 349 349 352 355 358 361 356 352 352 352 357 354 353 355 355 358 359 357 358 359 356 355 354 354 356 356 362 371 370 368 366 366 367 367
350 352 356 355 353 350 351 349 348 345 348 350 353 354 361 357 357 362 360 355 354 356 362 361 363 359 356 356 358 355 357 356 357 359 358 356 365 370 369 366 365 366 366
350 352 354 354 352 347 349 353 350 346 349 346 353 351 356 356 359 359 352 354 358 361 357 360 357 353 354 354 353 355 359 358 357 359 357 357 356 356 368 367 364 363 364
352 352 354 354 352 351 352 353 351 352 348 350 351 351 357 355 356 357 352 354 358 354 353 355 355 356 354 354 354 356 356 358 357 356 360 357 357 354 355 367 365 366 364
352 352 354 354 352 353 354 353 355 358 349 348 348 350 352 355 355 355 353 357 357 352 352 355 361 359 358 356 355 352 356 356 359 355 355 354 356 357 356 360 361 363 366
351 349 352 352 351 348 347 346 353 350 349 347 347 348 350 354 357 357 353 353 354 352 355 357 359 358 357 359 353 353 355 354 353 356 356 356 356 355 355 357 359 360 362
349 351 351 354 353 355 352 350 356 353 347 347 349 348 350 352 359 358 360 355 356 351 359 363 366 361 359 359 355 350 344 350 352 349 354 354 355 355 356 361 360 365 362
349 350 352 353 354 355 356 359 355 353 350 347 351 349 350 355 357 358 359 358 358 356 351 364 366 365 359 362 364 354 342 349 347 355 354 352 355 352 351 358 358 363 365
348 350 353 355 355 356 357 357 355 350 351 347 348 351 350 355 355 354 356 358 358 357 367 368 367 367 366 356 356 363 360 357 346 339 346 352 353 348 350 351 354 358 359
348 348 352 356 356 356 356 358 356 353 356 351 347 353 353 355 357 355 357 357 360 368 367 368 365 363 363 356 360 360 358 359 360 348 338 344 347 354 350 351 354 357 356
348 348 350 354 355 356 356 356 355 353 354 352 349 347 347 349 353 357 358 362 366 369 367 364 363 364 363 365 364 364 358 352 348 346 339 343 345 348 350 351 353 354 359
Wind_Speed
11 12 13 18 19 19 20 20 20 20 19 20 20 20 20 19 18 18 17 16 15 14 12 10 9 9 8 8 8 8 8 7 6 4 5 6 7 5 6 5 8 10 8
14 15 14 17 18 18 19 19 20 20 19 19 19 20 20 19 17 16 15 14 13 11 10 9 7 7 6 6 6 6 6 5 3 2 5 7 8 7 5 4 6 13 9
14 16 14 16 18 18 18 18 19 19 19 18 18 19 19 18 16 15 14 12 11 10 10 9 8 6 6 5 5 5 4 3 3 6 7 5 9 10 5 2 5 10 8
13 15 13 15 17 18 18 18 18 19 19 18 17 17 16 16 14 14 13 11 11 9 8 8 7 6 5 4 3 2 2 2 7 10 9 11 5 11 7 4 4 8 9
15 12 14 15 16 17 17 17 18 18 17 18 18 17 16 15 14 12 11 10 9 8 7 6 5 4 3 2 1 1 1 6 9 11 8 3 7 10 9 6 7 8 11
17 15 14 14 15 16 17 17 17 17 16 16 17 16 14 12 12 11 9 8 8 7 5 5 4 3 2 1 1 2 5 10 13 11 9 6 9 11 8 6 7 10 10
13 17 11 11 12 14 16 17 17 17 17 15 15 15 14 12 10 8 8 8 6 6 6 5 4 2 1 1 2 4 7 12 12 12 7 6 10 10 8 8 8 9 10
14 15 13 12 8 12 13 16 16 15 14 12 13 12 11 9 8 7 7 6 6 5 5 4 2 1 2 2 3 4 7 11 13 11 3 7 14 10 7 8 8 9 10
11 17 15 11 8 12 11 15 14 14 13 11 12 11 9 8 7 7 7 6 5 4 3 2 1 1 3 5 5 7 10 11 5 9 11 7 12 10 8 8 9 10 10
12 18 17 11 14 10 4 11 13 12 12 10 9 8 10 8 7 8 9 6 4 2 1 2 2 4 7 10 10 11 12 15 12 10 4 5 12 10 9 10 11 12 12
12 16 18 16 11 9 6 5 7 11 11 10 10 8 10 8 9 11 10 7 3 3 4 5 6 9 13 15 15 15 14 9 6 6 6 14 13 12 12 12 12 12 11
15 12 15 17 11 11 5 2 3 3 9 4 4 8 6 7 6 5 9 5 6 8 10 11 12 14 14 7 9 16 9 11 6 4 1 13 14 12 12 14 14 14 13
14 12 13 16 16 13 8 3 1 3 6 4 5 5 5 5 3 6 7 7 10 13 8 11 12 10 9 7 7 9 8 7 10 9 6 15 12 11 12 14 15 14 11
14 13 13 15 14 12 7 6 5 3 3 4 1 7 3 4 5 1 3 5 3 5 2 6 5 5 7 7 10 6 3 3 2 7 8 11 12 12 12 13 15 13 13
18 13 13 13 13 12 6 4 4 4 4 4 2 11 6 3 1 5 2 5 4 2 2 3 4 5 5 6 9 12 5 10 12 5 3 11 13 13 12 12 13 12 14
13 14 14 14 12 12 9 7 4 5 4 3 2 7 3 5 2 2 4 3 2 4 9 6 7 8 8 6 5 8 12 12 8 6 8 7 15 13 11 9 9 10 9
8 12 15 14 14 13 10 9 2 6 6 3 3 7 4 4 2 7 1 5 4 6 6 4 4 5 7 7 9 5 6 3 11 7 8 9 6 10 10 9 7 7 8
8 14 15 13 14 12 9 10 9 3 6 6 4 3 3 2 1 5 4 2 7 8 3 3 5 7 7 8 7 6 5 3 4 6 5 6 6 6 9 9 7 7 6
12 7 15 15 16 13 8 7 7 10 8 5 5 2 2 4 2 6 4 3 5 7 6 6 7 10 6 9 9 6 6 3 2 5 3 3 6 7 4 8 9 11 8
11 9 10 12 15 9 9 5 5 3 6 7 5 4 4 5 2 4 5 2 7 6 6 8 9 8 6 8 12 8 7 3 1 5 6 6 4 4 6 6 6 6 9
12 11 11 13 14 10 7 10 8 10 8 6 3 5 4 5 6 4 7 4 5 6 7 9 9 8 7 7 7 9 8 4 6 1 2 3 6 10 7 6 4 5 6
12 13 11 14 15 13 9 6 8 3 9 8 8 5 4 7 9 7 6 7 7 7 8 8 7 7 7 7 7 6 4 7 2 10 5 4 5 4 7 5 6 7 9
13 13 13 13 15 12 13 8 6 5 3 8 7 6 7 11 9 9 9 8 8 7 9 8 7 8 5 6 7 4 6 5 10 1 6 4 8 5 7 1 14 5 13
13 13 15 12 13 11 13 11 12 8 6 8 7 8 8 9 11 11 10 8 8 8 9 7 6 6 5 7 4 4 3 6 3 8 5 4 8 2 5 9 11 10 11
15 13 13 15 11 9 11 9 5 8 3 3 6 10 5 8 10 12 7 8 8 6 6 6 6 6 5 7 7 5 5 4 4 6 7 8 3 3 8 10 7 7 13
16 14 14 12 12 11 11 12 10 9 5 7 7 6 6 7 8 9 8 8 7 5 6 3 5 7 5 7 5 5 3 4 5 8 8 10 5 10 10 9 7 11 7
Wind_Direction
107 116 120 116 117 117 118 116 116 114 111 111 109 108 108 108 109 109 113 113 113 116 115 112 105 90 78 69 62 54 54 62 75 103 124 122 121 125 137 188 192 130 118
115 122 124 117 116 118 119 119 118 116 113 112 113 109 108 109 112 114 115 118 119 116 114 115 104 90 72 62 56 49 49 58 67 160 164 154 140 143 172 220 291 110 135
116 125 129 121 119 120 121 121 121 120 116 115 113 114 111 113 114 116 117 116 113 112 110 105 98 86 74 66 59 45 49 51 308 271 217 199 144 148 178 182 109 132 143
119 122 132 123 120 124 125 127 125 124 120 119 115 114 117 117 118 116 113 111 110 111 107 104 100 95 89 77 57 39 38 305 273 282 274 195 169 143 155 201 169 160 165
110 126 131 127 128 128 132 128 125 127 124 123 121 121 122 122 121 120 114 112 113 110 101 90 79 74 78 80 59 30 297 268 271 276 253 25 116 136 153 180 187 191 194
118 123 130 133 131 132 135 131 129 128 128 128 129 126 127 127 121 121 121 121 115 108 100 95 81 69 70 94 47 344 305 291 289 267 253 190 160 141 160 184 237 205 204
118 118 124 131 128 129 136 132 130 130 132 132 126 129 126 124 123 130 125 117 112 106 103 92 83 71 52 336 330 319 305 300 287 278 147 173 122 146 163 195 216 215 206
121 119 113 105 90 107 132 130 132 132 136 127 126 123 124 130 131 135 129 132 120 116 106 96 82 339 314 281 290 299 292 287 301 322 98 117 131 136 166 194 206 214 218
119 107 100 87 111 119 145 133 133 135 133 138 129 125 134 148 148 150 133 127 124 120 124 133 153 276 268 262 262 269 273 278 283 279 14 79 130 149 183 199 208 215 221
115 114 107 95 98 73 89 123 125 135 127 117 134 132 134 144 154 138 152 145 134 151 215 248 262 259 256 250 245 248 251 266 254 256 177 130 139 163 196 211 220 221 219
125 129 129 122 107 97 73 110 125 127 125 135 144 148 171 170 178 167 88 129 171 222 251 260 254 258 255 246 237 237 243 254 183 234 148 152 152 178 206 216 224 223 222
127 134 139 134 118 106 103 89 107 190 165 149 129 170 214 221 109 143 119 175 215 229 237 232 237 245 256 287 201 232 238 241 307 280 58 158 160 180 209 220 225 227 228
141 146 153 147 149 140 130 132 58 359 65 131 147 184 211 118 181 202 155 195 204 213 224 214 214 232 9 326 336 282 313 2 330 347 163 162 171 182 213 225 231 232 227
142 145 162 159 150 147 138 111 91 39 95 97 17 283 170 207 194 345 304 52 240 220 30 232 315 357 282 279 266 303 279 260 234 234 93 172 186 191 212 229 240 240 215
129 141 154 151 159 158 135 124 141 106 81 79 264 257 194 166 99 234 153 275 327 289 310 263 321 338 306 318 326 345 320 274 278 335 23 163 193 190 208 227 244 253 224
131 142 147 160 160 166 176 160 241 148 118 58 310 300 352 319 186 186 215 270 286 327 357 336 359 326 304 286 338 327 330 331 326 337 350 210 188 187 198 223 240 259 247
156 149 151 166 161 170 174 175 234 200 150 96 331 326 7 294 152 310 192 301 2 331 227 21 306 270 329 329 299 308 261 320 308 350 298 355 166 175 188 195 219 252 262
153 141 148 158 161 155 178 180 183 182 180 169 184 278 142 176 278 253 245 321 32 279 358 298 315 320 326 310 323 314 302 272 322 252 14 348 11 340 179 168 188 223 249
146 176 147 161 161 170 175 178 188 183 173 172 200 152 223 260 150 290 294 10 316 293 324 313 346 336 323 318 303 297 280 6 292 351 6 344 35 350 17 170 196 203 209
141 166 165 155 158 163 164 180 193 238 194 167 193 178 238 264 275 294 301 334 297 314 329 350 318 317 311 304 305 323 287 344 240 21 9 4 347 301 7 332 311 160 188
139 161 171 157 162 159 177 179 199 206 164 162 195 195 214 245 263 264 290 315 296 316 340 308 309 308 285 282 321 309 1 3 283 297 167 355 17 27 5 342 310 354 195
155 156 182 169 172 182 178 208 190 220 180 171 183 187 186 244 252 255 263 299 309 316 303 300 308 318 301 353 295 343 303 334 53 244 81 272 40 351 51 15 15 37 74
154 165 176 173 180 184 170 191 185 206 237 185 162 193 197 232 242 251 264 278 293 290 295 331 304 300 314 308 280 276 317 20 332 206 219 286 83 45 1 310 43 56 47
160 163 158 175 183 187 172 181 186 197 185 175 205 182 208 217 236 252 260 275 280 290 320 311 312 306 278 307 329 22 320 337 334 337 358 148 92 39 31 35 51 60 58
156 161 161 168 187 185 180 192 193 203 213 265 196 152 192 217 218 243 252 261 277 295 280 280 300 337 310 326 345 326 324 321 244 262 312 42 89 61 66 70 64 49 47
159 166 158 169 174 173 174 189 193 201 193 191 204 195 194 218 194 213 226 252 290 289 292 295 329 302 334 334 340 338 330 332 332 301 322 12 41 79 65 56 25 57 55